www.pogodaiklimat.ru

Погода и климат >> Архив погоды >> Россия >> Ростовская область >> Ремонтное


АРХИВ ПОГОДЫ в Ремонтном

Время (UTC), дата Ветер
(напр.,м/с)
 
Видим.   Явления Облачность Т
(С)
Тd
(С)
f
(%)
Тe
(С)
Тes
(С)
Комфортность P
(гПа)
Po
(гПа)
Тmin
(С)
Tmax
(С)
R
(мм)
R24
(мм)
S
(см)
06 13.09 В 3 10 км ясно +22.0 +6.6 37 +23 +27 комфорт 1025.9 1013.4
09 13.09 В 4 10 км 1/1 600 м
[Cu hum]
+25.5 +4.6 26 +25 +32 комфорт 1024.7 1012.4
12 13.09 В 4
{10}
10 км 3/3 600 м
[Cu hum]
+25.5 +2.8 23 +24 +27 комфорт 1023.3 1010.9
15 13.09 В 3 10 км 3/1 600 м
[Cu hum Ci fib]
+23.0 +3.5 28 +23 +23 комфорт 1022.9 1010.5 +26.6
18 13.09 Ю 1 10 км ясно +14.1 +3.5 49 +15 +15 1023.7 1010.9
21 13.09 ЮВ 1 10 км ясно +11.8 +2.3 52 +12 +12 1023.6 1010.7
00 14.09 штиль 0 10 км ясно +8.3 +3.1 70 +8 +8 1023.5 1010.4
03 14.09 ЮВ 2 10 км 3/0
[Ac lent Ci fib]
+6.9 +2.4 73 +5 +5 1023.4 1010.3 +6.7
06 14.09 Ю 1 10 км ясно +21.3 +7.9 42 +22 +29 комфорт 1022.6 1010.1
09 14.09 ЮВ 3 20 км 8/8 600 м
[Cu hum]
+25.5 +5.0 27 +25 +27 комфорт 1021.1 1008.8
12 14.09 ЮВ 1 20 км 6/5 600 м
[Cu hum Ci fib]
+25.4 +3.4 24 +24 +28 комфорт 1019.5 1007.2
15 14.09 Ю 1 20 км 4/3 600 м
[Sc Ci fib]
+23.5 +2.3 25 +23 +23 комфорт 1018.7 1006.3 +26.3
18 14.09 ЮВ 2 10 км ясно +14.4 +1.3 41 +14 +14 1019.4 1006.6
21 14.09 Ю 1 10 км 1/0
[Ci fib]
+11.4 +2.4 54 +12 +12 1019.3 1006.4
00 15.09 Ю 2 10 км 3/0
[Ac trans]
+15.1 +7.1 59 +15 +15 1018.2 1005.5
03 15.09 СВ 1 10 км 9/3 600 м
[Sc Ac trans Cc]
+9.9 +6.6 80 +9 +9 1018.2 1005.3 +9.9
06 15.09 Ю 3 10 км 10/0
[Ci]
+22.4 +8.1 40 +24 +27 комфорт 1017.8 1005.5
09 15.09 Ю 3 10 км 9/3 600 м
[Cu med, cong Ci]
+26.4 +5.3 26 +26 +31 жарко 1017.1 1004.9
12 15.09 З 2 10 км 9/8 600 м
[Cb cap Ci]
+27.7 +4.6 23 +26 +28 жарко 1016.1 1003.9
15 15.09 С 4
{10}
10 км 3/1 600 м
[Sc diur, vesp Ci fib]
+21.6 +6.2 37 +22 +22 комфорт 1017.8 1005.4 +27.8
18 15.09 СЗ 1 10 км ясно +14.7 +4.4 50 +15 +15 1020.5 1007.8
21 15.09 штиль 0 10 км ясно +8.4 +2.8 68 +8 +8 1020.9 1007.9
00 16.09 Ю 1 10 км 1/0
[Ci fib]
+4.9 +1.4 78 +4 +4 1021.0 1007.8
03 16.09 ЮВ 1 10 км 1/1 600 м
[Sc]
+4.1 -0.1 74 +3 +3 1020.9 1007.6 +3.4
06 16.09 ЮВ 1 10 км ясно +19.4 +3.9 36 +21 +27 комфорт 1019.3 1006.8
09 16.09 Ю 2 20 км ясно +23.8 +0.1 21 +23 +33 комфорт 1016.7 1004.4
12 16.09 ЮЗ 3 20 км ясно +25.8 +3.1 23 +25 +29 комфорт 1013.6 1001.4
15 16.09 ЮЗ 1 20 км ясно +24.3 +4.1 27 +24 +24 комфорт 1012.1 999.9 +26.0
18 16.09 Ю 1 10 км ясно +14.6 +4.3 50 +15 +15 1012.6 999.9
21 16.09 штиль 0 10 км ясно +11.8 +2.8 54 +12 +12 1012.4 999.6
00 17.09 штиль 0 10 км ясно +8.5 +2.7 67 +8 +8 1012.2 999.3
03 17.09 Ю 1 10 км ясно +7.5 +1.1 64 +7 +7 1012.1 999.2 +7.3
06 17.09 ЮЗ 3 10 км 3/1 600 м
[Sc Ci fib]
+20.7 +1.9 29 +21 +25 комфорт 1011.5 999.1
09 17.09 З 4
{10}
10 км 3/0
[Ci fib]
+25.0 +2.4 23 +24 +31 комфорт 1009.9 997.7
12 17.09 ЮЗ 5
{11}
10 км 3/0
[Ci fib]
+26.3 +1.5 20 +25 +28 комфорт 1008.5 996.4
15 17.09 ЮЗ 3
{10}
10 км 3/1 600 м
[Sc diur, vesp Ac trans Ci fib]
+24.5 +1.9 23 +23 +23 комфорт 1007.8 995.6 +26.7
18 17.09 ЮЗ 2 10 км 10/6 600 м
[Sc Ac As]
+21.2 +3.4 31 +21 +21 комфорт 1008.6 996.3
21 17.09 СЗ 1 10 км 9/4 600 м
[Sc Ac As]
+16.7 +10.5 67 +18 +18 1010.1 997.6
00 18.09 ЮЗ 2 10 км 10/6 600 м
[Sc Ac As]
+15.9 +10.0 68 +16 +16 1010.5 998.0
03 18.09 ЮЗ 3 10 км 9/8 600 м
[Cb cap Ac cast]
+18.1 +10.8 62 +18 +18 1010.5 998.0 +15.0
06 18.09 З 5
{10}
10 км 9/6 600 м
[Sc diur, vesp Ac lent Ci fib]
+20.3 +12.3 60 +22 +23 комфорт 1011.0 998.6
09 18.09 З 6-13
{15}
10 км 4/3 600 м
[Cu hum Ac trans Ci fib]
+22.9 +13.1 54 +26 +29 жарко 1010.5 998.3
12 18.09 ЮЗ 6-12
{14}
10 км 3/1 600 м
[Cu hum Ac cuf]
+25.4 +11.6 42 +27 +28 жарко 1008.7 996.5
15 18.09 З 5-11
{13}
10 км 9/4 600 м
[Sc diur, vesp Ac trans Ci fib]
+26.4 +7.9 31 +26 +26 жарко 1007.1 995.0 +27.3
18 18.09 З 8-16
{16}
10 км 10/10 600 м
[Sc diur, vesp]
+24.8 +8.3 35 +25 +25 комфорт 1008.4 996.3
21 18.09 З 6-10
{17}
10 км 10/10 600 м
[Cb cap]
+17.3 +9.9 62 +16 +16 1011.9 999.4
00 19.09 З 5-10
{12}
10 км 10/10 600 м
[Sc diur, vesp]
+14.9 +7.0 59 +14 +14 1014.5 1001.9
03 19.09 З 2
{10}
10 км 9/8 600 м
[Cb cap Ci fib]
+12.9 +5.3 60 +12 +12 1016.8 1004.1 +12.9
06 19.09 З 5-11
{12}
10 км 3/0
[Ac trans Ci fib]
+16.2 +1.5 37 +15 +17 1018.4 1005.7 +12.7
09 19.09 З 6-12
{12}
10 км ясно +18.3 +0.4 30 +18 +22 1018.8 1006.2
12 19.09 З 4
{13}
10 км 1/0
[Ci fib]
+19.5 -0.5 26 +20 +23 1018.7 1006.2
15 19.09 З 2 10 км 6/4 600 м
[Sc Ac trans Ci fib]
+17.1 -0.2 31 +18 +18 1019.5 1006.8 +19.7
18 19.09 штиль 0 10 км 10/0
[Ac lent Ci]
+13.0 +2.2 48 +13 +13 1020.5 1007.7
21 19.09 СЗ 1 10 км 10/4 600 м
[Sc Ac lent Ci]
+11.6 +2.9 55 +12 +12 1020.4 1007.5
00 20.09 ЮВ 1 10 км 10/10 300 м
[Sc]
+11.9 +3.9 58 +12 +12 1020.0 1007.2
03 20.09 ЮВ 1 10 км в посл. час ливневой дождь 10/10 300 м
[Cb cap]
+10.6 +7.5 81 +10 +10 1020.0 1007.1 +10.5 0.0

 

Местоположение метеостанции Ремонтное (Ростовская область, Россия): широта 46.57 долгота 43.67 высота над уровнем моря 106 м.

В архиве по умолчанию представлена погода в Ремонтном за последнюю неделю. Архивные данные за месяц целиком и за предыдущие месяцы, начиная с января 2011 года, Вы можете получить, выбрав интересующий диапазон дат из раскрывающегося списка и нажав кнопку "Ввод!".


*Определитесь, кто Вы:
робот инопланетянин человек

Внимание! Время в таблицах - всемирное. Для получения местного времени необходимо прибавить поправку, которая равна 3 ч.

Смотрите также архив погоды в соседних городах и на ближайших метеорологических станциях:

Погода в Элисте (Калмыкия, Россия) (55 км)
Погода в Дивном (Ставропольский край, Россия) (76 км)
Погода в Кетченерах (Калмыкия, Россия) (108 км)
Погода в Зимовниках (Ростовская область, Россия) (111 км)
Погода в Ики-Буруле (Калмыкия, Россия) (113 км)
Погода в Котельниково (Волгоградская область, Россия) (124 км)
Погода в Яшкуле (Калмыкия, Россия) (136 км)
Погода в Арзгире (Ставропольский край, Россия) (136 км)
Погода в Городовиковске (Калмыкия, Россия) (142 км)
Погода в Светлограде (Ставропольский край, Россия) (150 км)

Пояснения к столбцам:

Ветер - указаны скорость ветра в м/с - средняя за 10 мин, порывы в срок и между сроками (в фигурных скобках) и направление, откуда дует ветер: С - северный, СВ - северо-восточный, В - восточный, ЮВ - юго-восточный, Ю - южный, ЮЗ - юго-западный, З - западный, СЗ - северо-западный.
Видимость - горизонтальная дальность видимости в метрах или километрах. При видимости от 1 до 10 км при отсутствии осадков обычно наблюдается дымка, при ухудшении видимости до 1 км и менее - туман. В сухую погоду видимость может ухудшаться дымом, пылью или мглою.
Явления - указаны атмосферные явления, наблюдавшиеся в срок или в последний час перед сроком; фигурными скобками обозначены явления, наблюдавшиеся между сроками (за 1-3 часа до срока); квадратными скобками обозначены град или гололедные отложения с указанием их диаметра в мм.
Облачность - указаны через наклонную черту общая и нижняя облачность в баллах и высота нижней границы облаков в метрах; квадратными скобками обозначены формы облаков: Ci - перистые, Cs - перисто-слоистые, Cc - перисто-кучевые, Ac - высококучевые, As - высокослоистые, Sc - слоисто-кучевые, Ns - слоисто-дождевые, Cu - кучевые, Cb - кучево-дождевые. Подробнее классификацию облаков см. в Атласе облаков (PDF).
T - Температура воздуха - температура, измеренная на высоте 2 м над землей.
Td - Температура точки росы - температура, при понижении до которой содержащийся в воздухе водяной пар достигнет насыщения.
f - Относительная влажность воздуха - влажноcть воздуха, измеренная на высоте 2 м над землей.
Te - Эффективная температура - температура, которую ощущает одетый по сезону человек в тени. Характеристика душности погоды. При расчете учитывается влияние влажности воздуха и скорости ветра на теплоощущения человека.
Tes - Эффективная температура на солнце - температура, которую ощущает человек, с поправкой на солнечный нагрев. Характеристика знойности погоды. Зависит от высоты солнца над горизонтом, облачности и скорости ветра. Ночью, в пасмурную погоду, а также при ветре 12 м/с и более поправка равна нулю.
P - Атмосферное давление - приведенное к уровню моря атмосферное давление.
Po - Атмосферное давление - измеренное на уровне метеостанции атмосферное давление.
Tmin - Минимальная температура - минимум температуры воздуха на высоте 2 м над землей.
Tmax - Максимальная температура - максимум температуры воздуха на высоте 2 м над землей.
R - Количество осадков - Количество выпавших осадков за период времени, мм. При наведении курсора мыши на число - период времени, за который выпало указанное количество осадков.
R24 - Количество осадков - Количество выпавших осадков за 24 часа, мм.
S - Снежный покров - Высота снежного покрова, см. При наведении курсора мыши на число - состояние снежного покрова и степень покрытия местности в баллах.